OBJECT AY, 62655

Orbit data source: Space-Track

You're viewing an Uncataloged Satellite

Recently launched and/or uncataloged satellites may have evolving metadata. Metadata may include but not limited to: Owner, Maufacturer, Bus, Motor, and Mission.

OBJECT AY, 62655 is a satellite in SSO that was launched on Tue, 14 Jan 2025 UTC via an FALCON 9 launch vehicle from the Air Force Western Test Range (AFWTR). Unknown objects in Earth's orbit typically refer to objects detected orbiting the Earth but have not yet been identified or cataloged. These objects could be anything from previously untracked satellites, spent rocket stages, debris from satellite collisions, or even natural meteoroids temporarily captured by Earth's gravity.

Loading next visibility...
Identifier
62655, 2025-009AY
Orbit
SSO
Country
Flag of TBDTBD
Related business
None
Manufacturer
Unknown
Mission
Operational Commercial Navigation
Bus & Motor
Unknown
Mass
Unknown
Launch date (UTC)
2025-01-14 (1 year ago)
Launch vehicle
FALCON 9
Launch site
Air Force Western Test Range (AFWTR)
Object type
Unknown
Shape & HBR
Box, 0.1 m
Radar Cross Section
0.480 m², Small (<0.1 m²)

Expand to show TLE details & history
Last TLE update: 20 hours ago

TLE from 20 hours ago
0 OBJECT AY
1 62655U 25009AY  26103.69095106  .00013206  00000-0  35061-3 0  9998
2 62655  97.4042 189.3773 0002561 133.2312 226.9147 15.38408927 69271
Epoch: 2026-04-13T16:34Z
TLE epoch observation values (Epoch: 2026-04-13T16:34:58.171Z)
Latitude
-0.00006°
Longitude
98.757°
Altitude
455.124 km
Speed
7.639 km/s
True Right ascension
12h 37m 30s
True Declination
0° 00' 00"
Sunlit
Object was in full shadow at epoch
Visualization orbit readout
Latitude
Unknown
Longitude
Unknown
Altitude
Unknown
Speed
Unknown
Apparent Right ascension
Unknown
Apparent Declination
Unknown
Sunlit
N/A
Visualization observer readout
Local Sidereal Time
19:14:27
Azimuth
Unknown
Elevation
Unknown
Doppler factor
Unknown
Orbital elements
Apogee altitude
449.503 km
Perigee altitude
446.007 km
Semi-major axis
6,825.892 km
Eccentricity
0.00026
Inclination
97.4042°
RAAN
189.3773°
Arg. of periapsis
133.2312°
True anomaly
226.89327°
Mean anomaly
226.9147°
Eccentric anomaly
226.90399°
Mean motion
3.84861 °/min
Orbital period
93.54 mins
BSTAR
0.00035061
Loading maneuver chart data...
Computing Atmospheric mass density...
Loading historical data...
Loading historical data...
Loading historical data...
Loading historical data...
Loading historical data...
Loading historical data...
Loading historical data...

Documentation

Showing up to 5 results
|